Вернуться в каталог

KUIPER-00009

АктивенСвязьVLEO
NORAD 63725·PAYLOAD·🇺🇸 United States

Запущен Apr 28, 2025 с Cape Canaveral Space Force Station

Loading…

Ближайшие Пролёты (ближайшие 24 часа)

TLE

СвежийSource: CelesTrak SupGP

Эпоха: Sep 15, 2026, 03:22 UTC

1 63725C 25088B   26258.14037037  .00002749  00000+0  17614-3 0  2585
2 63725  51.9029 338.6522 0000309  97.7020 144.0870 15.08016497    13

Отслеживайте KUIPER-00009 в реальном времени с AllMySat

Download on the App Store